When you browse on this site, cookies collect data to enhance your experience and personalize the content and advertising you see.
Visit our Privacy Policy to learn more. By continuing to use the site, you agree to this use of cookies and data.
  • en France
  • Liste des pays
  • À 7 jours
  • Température de l'eau
  • Carte météo
  • Widgets météo
  • user-avatar
    Se connecter

    Météo par heure à Sidi-bel-Abbès

    Ce jour, 2 Juin, Mardi

    Heure Température Précipitation Vent Pression Humidité
    00:00 +21°C° 0 mm 0 m/s 720 mmHg 62%
    01:00 +20°C° 0 mm 0 m/s 719 mmHg 63%
    02:00 +20°C° 0 mm 0 m/s 719 mmHg 65%
    03:00 +21°C° 0 mm 1 m/s 719 mmHg 66%
    04:00 +21°C° 0 mm 1 m/s 719 mmHg 67%
    05:00 +21°C° 0 mm 1 m/s 719 mmHg 68%
    06:00 +20°C° 0 mm 0 m/s 719 mmHg 69%
    07:00 +23°C° 0 mm 1 m/s 719 mmHg 61%
    08:00 +25°C° 0 mm 1 m/s 720 mmHg 52%
    09:00 +26°C° 0 mm 1 m/s 720 mmHg 44%
    10:00 +28°C° 0 mm 2 m/s 720 mmHg 39%
    11:00 +29°C° 0 mm 3 m/s 720 mmHg 34%
    12:00 +31°C° 0 mm 3 m/s 720 mmHg 30%
    13:00 +32°C° 0 mm 4 m/s 720 mmHg 31%
    14:00 +32°C° 0 mm 5 m/s 719 mmHg 33%
    15:00 +32°C° 0 mm 6 m/s 719 mmHg 35%
    16:00 +30°C° 0 mm 5 m/s 719 mmHg 40%
    17:00 +28°C° 0 mm 4 m/s 718 mmHg 45%
    18:00 +27°C° 0 mm 4 m/s 718 mmHg 50%
    19:00 +26°C° 0 mm 3 m/s 719 mmHg 54%
    20:00 +25°C° 0 mm 2 m/s 719 mmHg 59%
    21:00 +24°C° 0 mm 1 m/s 719 mmHg 64%
    22:00 +23°C° 0 mm 1 m/s 719 mmHg 66%
    23:00 +23°C° 0 mm 1 m/s 719 mmHg 68%

    Demain, 3 Juin, Mercredi

    Heure Température Précipitation Vent Pression Humidité
    00:00 +22°C° 0 mm 1 m/s 719 mmHg 70%
    01:00 +22°C° 0 mm 1 m/s 718 mmHg 74%
    02:00 +21°C° 0 mm 1 m/s 718 mmHg 77%
    03:00 +20°C° 0 mm 1 m/s 717 mmHg 81%
    04:00 +21°C° 0 mm 1 m/s 717 mmHg 78%
    05:00 +21°C° 0 mm 1 m/s 717 mmHg 75%
    06:00 +22°C° 0 mm 1 m/s 717 mmHg 71%
    07:00 +23°C° 0 mm 1 m/s 718 mmHg 62%
    08:00 +25°C° 0 mm 2 m/s 718 mmHg 53%
    09:00 +27°C° 0 mm 2 m/s 718 mmHg 44%
    10:00 +28°C° 0 mm 3 m/s 718 mmHg 40%
    11:00 +29°C° 0 mm 4 m/s 718 mmHg 35%
    12:00 +30°C° 0 mm 4 m/s 718 mmHg 31%
    13:00 +32°C° 0 mm 4 m/s 717 mmHg 31%
    14:00 +32°C° 0 mm 4 m/s 717 mmHg 30%
    15:00 +32°C° 0 mm 5 m/s 717 mmHg 30%
    16:00 +30°C° 0 mm 4 m/s 716 mmHg 32%
    17:00 +29°C° 0 mm 4 m/s 716 mmHg 35%
    18:00 +28°C° 0 mm 4 m/s 716 mmHg 38%
    19:00 +27°C° 0 mm 3 m/s 716 mmHg 41%
    20:00 +26°C° 0 mm 3 m/s 716 mmHg 43%
    21:00 +25°C° 0 mm 2 m/s 716 mmHg 46%
    22:00 +25°C° 0 mm 2 m/s 716 mmHg 45%
    23:00 +24°C° 0 mm 2 m/s 715 mmHg 45%

    Après-demain, 4 Juin, Jeudi

    Heure Température Précipitation Vent Pression Humidité
    00:00 +24°C° 0 mm 3 m/s 715 mmHg 45%
    01:00 +22°C° 0 mm 3 m/s 715 mmHg 44%
    02:00 +22°C° 0 mm 3 m/s 715 mmHg 43%
    03:00 +22°C° 0 mm 3 m/s 715 mmHg 42%
    04:00 +21°C° 0 mm 3 m/s 715 mmHg 45%
    05:00 +21°C° 0 mm 3 m/s 715 mmHg 48%
    06:00 +21°C° 0 mm 3 m/s 715 mmHg 51%
    07:00 +22°C° 0 mm 5 m/s 715 mmHg 48%
    08:00 +23°C° 0 mm 6 m/s 715 mmHg 45%
    09:00 +24°C° 0 mm 8 m/s 716 mmHg 43%
    10:00 +26°C° 0 mm 8 m/s 716 mmHg 41%
    11:00 +26°C° 0 mm 9 m/s 716 mmHg 40%
    12:00 +27°C° 0 mm 9 m/s 716 mmHg 38%
    13:00 +27°C° 0 mm 10 m/s 716 mmHg 37%
    14:00 +27°C° 0 mm 10 m/s 716 mmHg 36%
    15:00 +27°C° 0 mm 10 m/s 716 mmHg 35%
    16:00 +26°C° 0 mm 10 m/s 716 mmHg 38%
    17:00 +24°C° 0 mm 9 m/s 716 mmHg 41%
    18:00 +24°C° 0 mm 9 m/s 716 mmHg 44%
    19:00 +23°C° 0 mm 8 m/s 716 mmHg 48%
    20:00 +22°C° 0 mm 7 m/s 717 mmHg 52%
    21:00 +21°C° 0 mm 6 m/s 717 mmHg 57%
    22:00 +21°C° 0 mm 6 m/s 717 mmHg 59%
    23:00 +21°C° 0 mm 5 m/s 717 mmHg 62%

    5 Juin, Vendredi

    Heure Température Précipitation Vent Pression Humidité
    00:00 +20°C° 0 mm 5 m/s 717 mmHg 64%
    01:00 +20°C° 0 mm 4 m/s 717 mmHg 67%
    02:00 +20°C° 0 mm 4 m/s 717 mmHg 71%
    03:00 +19°C° 0 mm 3 m/s 717 mmHg 74%
    04:00 +19°C° 0 mm 3 m/s 717 mmHg 72%
    05:00 +20°C° 0 mm 3 m/s 717 mmHg 70%
    06:00 +20°C° 0 mm 3 m/s 718 mmHg 68%
    07:00 +21°C° 0 mm 4 m/s 718 mmHg 61%
    08:00 +23°C° 0 mm 5 m/s 719 mmHg 54%
    09:00 +26°C° 0 mm 5 m/s 719 mmHg 47%
    10:00 +27°C° 0 mm 5 m/s 719 mmHg 43%
    11:00 +28°C° 0 mm 5 m/s 719 mmHg 40%
    12:00 +29°C° 0 mm 5 m/s 719 mmHg 37%
    13:00 +29°C° 0 mm 5 m/s 719 mmHg 37%
    14:00 +29°C° 0 mm 6 m/s 719 mmHg 38%
    15:00 +29°C° 0 mm 6 m/s 718 mmHg 38%
    16:00 +28°C° 0 mm 5 m/s 718 mmHg 39%
    17:00 +28°C° 0 mm 4 m/s 718 mmHg 41%
    18:00 +27°C° 0 mm 3 m/s 718 mmHg 42%
    19:00 +26°C° 0 mm 2 m/s 718 mmHg 44%
    20:00 +26°C° 0 mm 2 m/s 718 mmHg 46%
    21:00 +25°C° 0 mm 1 m/s 719 mmHg 48%
    22:00 +25°C° 0 mm 1 m/s 718 mmHg 49%
    23:00 +25°C° 0 mm 1 m/s 718 mmHg 50%

    6 Juin, Samedi

    Heure Température Précipitation Vent Pression Humidité
    00:00 +24°C° 0 mm 1 m/s 718 mmHg 52%
    01:00 +24°C° 0 mm 1 m/s 717 mmHg 53%
    02:00 +24°C° 0 mm 1 m/s 717 mmHg 54%
    03:00 +23°C° 0 mm 1 m/s 717 mmHg 55%
    04:00 +23°C° 0 mm 1 m/s 717 mmHg 55%
    05:00 +23°C° 0 mm 1 m/s 717 mmHg 54%
    06:00 +23°C° 0 mm 1 m/s 717 mmHg 54%
    07:00 +25°C° 0 mm 1 m/s 718 mmHg 50%
    08:00 +26°C° 0 mm 1 m/s 718 mmHg 46%
    09:00 +27°C° 0 mm 1 m/s 718 mmHg 42%
    10:00 +28°C° 0 mm 2 m/s 718 mmHg 38%
    11:00 +30°C° 0 mm 3 m/s 719 mmHg 34%
    12:00 +31°C° 0 mm 3 m/s 719 mmHg 30%
    13:00 +33°C° 0 mm 3 m/s 718 mmHg 29%
    14:00 +33°C° 0 mm 3 m/s 718 mmHg 29%
    15:00 +33°C° 0 mm 4 m/s 717 mmHg 28%
    16:00 +32°C° 0 mm 4 m/s 717 mmHg 30%
    17:00 +32°C° 0 mm 4 m/s 717 mmHg 32%
    18:00 +30°C° 0 mm 4 m/s 717 mmHg 34%
    19:00 +28°C° 0 mm 4 m/s 717 mmHg 40%
    20:00 +26°C° 0 mm 5 m/s 717 mmHg 47%
    21:00 +25°C° 0 mm 5 m/s 717 mmHg 53%
    22:00 +23°C° 0.1 mm 5 m/s 718 mmHg 55%
    23:00 +22°C° 0.1 mm 4 m/s 718 mmHg 57%

    7 Juin, Dimanche

    Heure Température Précipitation Vent Pression Humidité
    00:00 +21°C° 0.1 mm 3 m/s 718 mmHg 59%
    01:00 +21°C° 0 mm 3 m/s 718 mmHg 60%
    02:00 +21°C° 0 mm 3 m/s 718 mmHg 62%
    03:00 +20°C° 0 mm 3 m/s 718 mmHg 63%
    04:00 +20°C° 0 mm 3 m/s 718 mmHg 63%
    05:00 +20°C° 0 mm 3 m/s 719 mmHg 63%
    06:00 +20°C° 0 mm 3 m/s 719 mmHg 63%
    07:00 +21°C° 0 mm 4 m/s 719 mmHg 61%
    08:00 +22°C° 0 mm 5 m/s 720 mmHg 59%
    09:00 +23°C° 0 mm 5 m/s 720 mmHg 58%
    10:00 +24°C° 0 mm 6 m/s 720 mmHg 53%
    11:00 +26°C° 0 mm 6 m/s 720 mmHg 49%
    12:00 +27°C° 0 mm 6 m/s 720 mmHg 45%
    13:00 +27°C° 0 mm 6 m/s 720 mmHg 43%
    14:00 +27°C° 0 mm 7 m/s 720 mmHg 41%
    15:00 +28°C° 0 mm 7 m/s 719 mmHg 39%
    16:00 +27°C° 0 mm 7 m/s 719 mmHg 41%
    17:00 +26°C° 0 mm 7 m/s 719 mmHg 43%
    18:00 +24°C° 0 mm 6 m/s 719 mmHg 45%
    19:00 +23°C° 0 mm 5 m/s 720 mmHg 47%
    20:00 +22°C° 0 mm 4 m/s 720 mmHg 48%
    21:00 +22°C° 0 mm 3 m/s 720 mmHg 49%
    22:00 +21°C° 0 mm 3 m/s 720 mmHg 51%
    23:00 +21°C° 0 mm 3 m/s 720 mmHg 52%
    Voir plus